Provo, UT

12:47 AM MDT on March 30, 2017 (GMT -0600)
Provo Municipal

Weather History for KPVU - January, 2013

Change the Weather History Date:

Friday, January 25, 2013

  Actual Average Record
Temperature  
Mean Temperature 32 °F -  
Max Temperature 35 °F 36 °F 48 °F (1987)
Min Temperature 30 °F 22 °F -5 °F (1985)
Degree Days  
Heating Degree Days 32    
Moisture  
Dew Point 31 °F    
Average Humidity 95    
Maximum Humidity 100    
Minimum Humidity 87    
Precipitation  
Precipitation 0.00 in - - ()
Sea Level Pressure  
Sea Level Pressure 30.27 in    
Wind  
Wind Speed 1 mph (NW)    
Max Wind Speed 6 mph    
Max Gust Speed -    
Visibility 1 miles    
Events Fog    
Averages and records for this station are not official NWS values.
T = Trace of Precipitation, MM = Missing Value Source: NWS Daily Summary

Daily Weather History Graph

Daily Weather History Graph

Search for Another Location

Airport or City:

Trip Planner

Search our weather history database for the weather conditions in past years. The results will help you decide how hot, cold, wet, or windy it might be!

Date:

Astronomy

Jan. 25, 2013 Rise Set
Actual Time 7:41 AM MST 5:37 PM MST
Civil Twilight 7:12 AM MST 6:06 PM MST
Nautical Twilight 6:39 AM MST 6:39 PM MST
Astronomical Twilight 6:07 AM MST 7:11 PM MST
Moon 4:38 PM MST (1/25) 6:23 AM MST (1/25)
Length of Visible Light 10h 54m
Length of Day
9h 56m
Waxing Gibbous, 98% of the Moon is Illuminated
Jan 25
Waxing Gibbous
Jan 26
Full
Feb 3
Last Quarter
Feb 10
New
Feb 17
First Quarter

Hourly Weather History & Observations

Time (MST) Temp. Windchill Dew Point Humidity Pressure Visibility Wind Dir Wind Speed Gust Speed Precip Events Conditions
12:15 AM 32.0 °F - 32.0 °F 100% 30.32 in 1.2 mi Calm Calm - N/A   Overcast
12:35 AM 32.0 °F - 32.0 °F 100% 30.33 in 1.0 mi Calm Calm - N/A   Overcast
12:55 AM 32.0 °F 28.7 °F 30.2 °F 93% 30.33 in 1.2 mi NNW 3.5 mph - N/A   Mostly Cloudy
1:15 AM 32.0 °F 27.5 °F 32.0 °F 100% 30.32 in 1.2 mi NNE 4.6 mph - N/A   Overcast
1:35 AM 32.0 °F - 32.0 °F 100% 30.32 in 1.5 mi Calm Calm - N/A   Overcast
1:55 AM 32.0 °F - 32.0 °F 100% 30.33 in 1.5 mi Calm Calm - N/A   Overcast
2:15 AM 32.0 °F - 30.2 °F 93% 30.34 in 1.5 mi Calm Calm - N/A   Overcast
2:35 AM 32.0 °F - 30.2 °F 93% 30.33 in 1.8 mi Calm Calm - N/A   Overcast
2:55 AM 32.0 °F - 30.2 °F 93% 30.33 in 1.8 mi Calm Calm - N/A   Overcast
3:15 AM 32.0 °F - 30.2 °F 93% 30.33 in 1.5 mi Calm Calm - N/A   Overcast
3:35 AM 32.0 °F - 30.2 °F 93% 30.32 in 1.2 mi Calm Calm - N/A   Overcast
3:55 AM 32.0 °F - 32.0 °F 100% 30.32 in 1.5 mi Calm Calm - N/A   Overcast
4:15 AM 32.0 °F - 30.2 °F 93% 30.31 in 1.5 mi Calm Calm - N/A   Overcast
4:35 AM 32.0 °F - 30.2 °F 93% 30.31 in 1.5 mi Calm Calm - N/A   Overcast
4:55 AM 32.0 °F - 30.2 °F 93% 30.31 in 1.8 mi Calm Calm - N/A   Scattered Clouds
5:15 AM 32.0 °F - 30.2 °F 93% 30.31 in 1.8 mi Calm Calm - N/A   Clear
5:35 AM 32.0 °F - 30.2 °F 93% 30.31 in 1.5 mi Calm Calm - N/A   Clear
5:55 AM 32.0 °F - 32.0 °F 100% 30.31 in 1.5 mi Calm Calm - N/A   Clear
6:35 AM 32.0 °F - 30.2 °F 93% 30.31 in 1.5 mi Calm Calm - N/A   Mostly Cloudy
6:55 AM 32.0 °F - 30.2 °F 93% 30.31 in 1.5 mi Calm Calm - N/A   Overcast
6:56 AM 32.0 °F - 30.2 °F 93% 30.31 in 1.5 mi Calm Calm - N/A   Overcast
7:49 AM 32.0 °F - 30.2 °F 93% 30.31 in 0.8 mi Calm Calm - N/A   Overcast
8:47 AM 32.0 °F - 30.2 °F 93% 30.31 in 0.8 mi Calm Calm - N/A   Overcast
9:53 AM 30.2 °F 24.3 °F 30.2 °F 100% 30.32 in 1.1 mi NW 5.8 mph - N/A   Overcast
10:54 AM 32.0 °F - - N/A% 30.32 in 1.2 mi Calm Calm - N/A   Overcast
11:58 AM 33.8 °F - 30.2 °F 87% 30.31 in 1.2 mi Calm Calm - N/A   Mostly Cloudy
12:52 PM 33.8 °F - 30.2 °F 87% 30.28 in 1.2 mi Calm Calm - N/A   Overcast
1:50 PM 35.6 °F - 33.8 °F 93% 30.25 in 1.5 mi Calm Calm - N/A   Overcast
2:47 PM 33.8 °F - 32.0 °F 93% 30.23 in 1.5 mi Calm Calm - N/A   Overcast
3:50 PM 35.6 °F - 32.0 °F 87% 30.24 in 1.5 mi Calm Calm - N/A   Overcast
4:50 PM 35.6 °F - 33.8 °F 93% 30.22 in 1.5 mi Calm Calm - N/A   Overcast
5:47 PM 33.8 °F - 33.8 °F 100% 30.20 in 1.5 mi Calm Calm - N/A   Scattered Clouds
7:13 PM 30.2 °F - 28.4 °F 93% 30.20 in 0.1 mi Calm Calm - N/A Fog Fog
7:47 PM 32.0 °F - 30.2 °F 93% 30.20 in 0.0 mi Calm Calm - N/A Fog Fog
8:50 PM 32.0 °F - 30.2 °F 93% 30.19 in 0.0 mi Calm Calm - N/A Fog Fog
8:55 PM 32.0 °F 27.5 °F 30.2 °F 93% 30.18 in 0.2 mi West 4.6 mph - N/A   Overcast
9:15 PM 30.2 °F 26.7 °F 28.4 °F 93% 30.19 in 0.2 mi WNW 3.5 mph - N/A   Overcast
9:35 PM 30.2 °F - 30.2 °F 100% 30.19 in 0.2 mi Calm Calm - N/A   Overcast
10:15 PM 30.2 °F - 30.2 °F 100% 30.19 in 0.2 mi Calm Calm - N/A   Overcast
10:35 PM 30.2 °F - 30.2 °F 100% 30.19 in 0.2 mi Calm Calm - N/A   Overcast
10:55 PM 30.2 °F - 28.4 °F 93% 30.19 in 0.2 mi Calm Calm - N/A   Overcast
11:15 PM 30.2 °F - 28.4 °F 93% 30.18 in 0.5 mi Calm Calm - N/A   Overcast
11:55 PM 30.2 °F - 30.2 °F 100% 30.17 in 0.2 mi Calm Calm - N/A   Overcast